Waarnemingen

Advertentie
Mijn weer
San Sebastian/Fuenterrabia, Spanje (8029): temperatuur & dauwpunt: 13.07.2018 23:00:00 - 19.07.2018 23:00:00 (CEST)San Sebastian/Fuenterrabia, Spanje (8029): windsnelheid: 13.07.2018 23:00:00 - 19.07.2018 23:00:00 (CEST)San Sebastian/Fuenterrabia, Spanje (8029): windrichting: 13.07.2018 23:00:00 - 19.07.2018 23:00:00 (CEST)San Sebastian/Fuenterrabia, Spanje (8029): luchtdruk: 13.07.2018 23:00:00 - 19.07.2018 23:00:00 (CEST)San Sebastian/Fuenterrabia, Spanje (8029): zicht: 13.07.2018 23:00:00 - 19.07.2018 23:00:00 (CEST)
Datum & Tijd tt [°C] td [°C] ff [km/u] ff [kn] dd ppp [hPa] vv [km]
19.07.2018 23:00:00 - - - - - - -
19.07.2018 22:00:00 23,0 20,0 9 5 NW - 10
19.07.2018 21:00:00 23,0 20,0 8 4 W - 10
19.07.2018 20:00:00 23,4 18,9 8 4 WNW 1016,9 10
19.07.2018 19:00:00 24,0 19,0 5 3 W - 10
19.07.2018 18:00:00 24,0 20,0 11 6 WNW - 10
19.07.2018 17:00:00 24,6 19,7 13 7 WNW 1016,1 10
19.07.2018 16:00:00 24,0 20,0 13 7 WNW - 10
19.07.2018 15:00:00 25,0 20,0 11 6 NW - 10
19.07.2018 14:00:00 26,2 19,8 9 5 NW 1015,9 15
19.07.2018 13:00:00 25,0 20,0 13 7 NW - 10
19.07.2018 12:00:00 25,0 20,0 9 5 NNW - 10
19.07.2018 11:00:00 25,2 20,2 4 2 - 1016,0 10
19.07.2018 10:00:00 24,0 20,0 5 3 ZZO - 10
19.07.2018 09:00:00 23,0 20,0 8 4 ZZW - 10
19.07.2018 08:00:00 22,0 19,5 5 3 ZW 1015,9 10
19.07.2018 07:00:00 21,0 20,0 8 4 WZW - 10
19.07.2018 06:00:00 22,0 20,0 11 6 ZZW - 10
19.07.2018 05:00:00 22,0 20,0 11 6 ZW - 10
19.07.2018 04:00:00 22,0 20,0 5 3 ZW - 10
19.07.2018 03:00:00 22,0 21,0 9 5 ZW - 10
19.07.2018 02:00:00 23,0 20,0 5 3 ZW - 10
19.07.2018 01:00:00 23,0 21,0 5 3 WZW - 10
19.07.2018 00:00:00 24,0 21,0 8 4 W - 10
18.07.2018 23:00:00 24,0 21,0 5 3 WZW - 10
18.07.2018 22:00:00 24,0 21,0 5 3 - - 10
18.07.2018 21:00:00 25,0 21,0 8 4 WZW - 10
18.07.2018 20:00:00 26,2 20,5 13 7 WNW 1014,6 10
18.07.2018 19:00:00 26,0 21,0 8 4 N - 10
18.07.2018 18:00:00 27,0 21,0 9 5 - - 10
18.07.2018 17:00:00 27,9 20,7 11 6 NNO 1013,9 10
18.07.2018 16:00:00 27,0 21,0 9 5 NO - 10
18.07.2018 15:00:00 28,0 21,0 4 2 NNO - 10
18.07.2018 14:00:00 26,7 20,1 8 4 - 1014,0 10
18.07.2018 13:00:00 25,0 19,0 8 4 NNO - 10
18.07.2018 12:00:00 23,0 20,0 9 5 NNO - 10
18.07.2018 11:00:00 22,9 19,5 8 4 NNO 1014,2 10
18.07.2018 10:00:00 23,0 19,0 4 2 - - 10
18.07.2018 09:00:00 21,0 18,0 0 0 N - 10
18.07.2018 08:00:00 20,0 18,3 0 0 N 1014,6 10
18.07.2018 07:00:00 19,0 18,0 0 0 N - 10
18.07.2018 06:00:00 19,0 18,0 2 1 - - 10
18.07.2018 05:00:00 20,0 18,0 2 1 - - 10
18.07.2018 04:00:00 20,0 19,0 2 1 - - 10
18.07.2018 03:00:00 20,0 19,0 4 2 - - 10
18.07.2018 02:00:00 21,0 20,0 4 2 - - 10
18.07.2018 01:00:00 22,0 20,0 8 4 ZZO - 10
18.07.2018 00:00:00 24,0 20,0 5 3 N - 10
17.07.2018 23:00:00 24,0 19,0 5 3 N - 10
17.07.2018 22:00:00 24,0 19,0 8 4 N - 10
17.07.2018 21:00:00 24,0 20,0 9 5 NNO - 10
17.07.2018 20:00:00 24,0 19,1 11 6 NO 1017,6 10
17.07.2018 19:00:00 25,0 19,0 11 6 NNO - 10
17.07.2018 18:00:00 25,0 20,0 9 5 NNO - 10
17.07.2018 17:00:00 25,4 18,6 11 6 N 1018,7 10
17.07.2018 16:00:00 25,0 19,0 9 5 N - 10
17.07.2018 15:00:00 24,0 19,0 9 5 NNW - 10
17.07.2018 14:00:00 25,8 19,2 9 5 N 1020,1 10
17.07.2018 13:00:00 24,0 19,0 9 5 N - 10
17.07.2018 12:00:00 24,0 19,0 8 4 NNO - 10
17.07.2018 11:00:00 22,6 18,6 5 3 ZW 1020,8 10
17.07.2018 10:00:00 20,0 18,0 0 0 N - 10
17.07.2018 09:00:00 20,0 18,0 4 2 - - 10
17.07.2018 08:00:00 19,8 16,8 8 4 Z 1020,9 10
17.07.2018 07:00:00 19,0 17,0 8 4 ZZW - 10
17.07.2018 06:00:00 19,0 17,0 9 5 Z - 10
17.07.2018 05:00:00 - - - - - - -
17.07.2018 04:00:00 - - - - - - -
17.07.2018 03:00:00 - - - - - - -
17.07.2018 02:00:00 - - - - - - -
17.07.2018 01:00:00 - - - - - - -
17.07.2018 00:00:00 - - - - - - -
16.07.2018 23:00:00 - - - - - - -
16.07.2018 22:00:00 22,0 18,0 8 4 WNW - 10
16.07.2018 21:00:00 22,0 18,0 9 5 WZW - 10
16.07.2018 20:00:00 22,1 16,6 16 9 WNW 1021,1 10
16.07.2018 19:00:00 23,0 18,0 15 8 WNW - 10
16.07.2018 18:00:00 23,0 19,0 18 10 WNW - 10
16.07.2018 17:00:00 23,6 18,9 16 9 WNW 1020,5 10
16.07.2018 16:00:00 23,0 17,0 22 12 WNW - 10
16.07.2018 15:00:00 22,0 19,0 21 11 WNW - 10
16.07.2018 14:00:00 20,7 18,5 21 11 W 1019,7 2,0
16.07.2018 13:00:00 22,0 19,0 16 9 W - 10
16.07.2018 12:00:00 21,0 19,0 18 10 W - 9
16.07.2018 11:00:00 22,0 17,6 22 12 WZW 1018,6 10
16.07.2018 10:00:00 21,0 18,0 11 6 WZW - 10
16.07.2018 09:00:00 21,0 19,0 15 8 WZW - 10
16.07.2018 08:00:00 19,9 16,7 13 7 WNW 1017,4 2,0
16.07.2018 07:00:00 21,0 19,0 16 9 W - 6
16.07.2018 06:00:00 21,0 18,0 22 12 W - 5
16.07.2018 05:00:00 22,0 20,0 24 13 W - 10
16.07.2018 04:00:00 22,0 20,0 16 9 W - 10
16.07.2018 03:00:00 22,0 20,0 21 11 W - 10
16.07.2018 02:00:00 22,0 20,0 13 7 ZZW - 10
16.07.2018 01:00:00 22,0 20,0 11 6 ZW - 10
16.07.2018 00:00:00 22,0 20,0 15 8 Z - 10
15.07.2018 23:00:00 22,0 21,0 11 6 ZW - 10
15.07.2018 22:00:00 23,0 21,0 9 5 W - 10
15.07.2018 21:00:00 24,0 21,0 5 3 W - 10
15.07.2018 20:00:00 24,5 20,8 8 4 W 1015,3 10
15.07.2018 19:00:00 25,0 21,0 9 5 W - 10
15.07.2018 18:00:00 26,0 20,0 9 5 NW - 10
15.07.2018 17:00:00 27,2 20,3 13 7 NW 1014,8 20
15.07.2018 16:00:00 26,0 20,0 15 8 WNW - 10
15.07.2018 15:00:00 26,0 22,0 13 7 NW - 10
15.07.2018 14:00:00 27,1 20,9 15 8 NW 1015,5 15
15.07.2018 13:00:00 26,0 20,0 13 7 W - 10
15.07.2018 12:00:00 26,0 20,0 13 7 NW - 10
15.07.2018 11:00:00 25,6 19,5 9 5 WZW 1015,7 10
15.07.2018 10:00:00 25,0 20,0 11 6 ZW - 10
15.07.2018 09:00:00 23,0 20,0 9 5 WZW - 10
15.07.2018 08:00:00 21,5 19,1 11 6 ZW 1015,6 10
15.07.2018 07:00:00 21,0 20,0 8 4 ZW - 10
15.07.2018 06:00:00 21,0 20,0 11 6 ZW - 10
15.07.2018 05:00:00 21,0 20,0 13 7 ZW - 10
15.07.2018 04:00:00 21,0 19,0 15 8 ZW - 10
15.07.2018 03:00:00 22,0 20,0 9 5 WZW - 10
15.07.2018 02:00:00 22,0 21,0 4 2 - - 9
15.07.2018 01:00:00 23,0 22,0 13 7 ZW - 10
15.07.2018 00:00:00 23,0 22,0 4 2 - - 10
14.07.2018 23:00:00 23,0 21,0 5 3 WZW - 10
14.07.2018 22:00:00 - - - - - - -
14.07.2018 21:00:00 24,0 21,0 4 2 - - 10
14.07.2018 20:00:00 24,8 20,9 9 5 NNW 1015,4 15
14.07.2018 19:00:00 25,0 21,0 8 4 N - 10
14.07.2018 18:00:00 28,0 22,0 9 5 NNO - 10
14.07.2018 17:00:00 28,3 20,6 11 6 N 1015,6 20
14.07.2018 16:00:00 27,0 20,0 11 6 N - 10
14.07.2018 15:00:00 27,0 21,0 8 4 N - 10
14.07.2018 14:00:00 26,3 21,3 13 7 NNO 1016,8 10
14.07.2018 13:00:00 26,0 22,0 9 5 N - 10
14.07.2018 12:00:00 26,0 22,0 9 5 NO - 10
14.07.2018 11:00:00 25,4 19,5 2 1 - 1017,3 10
14.07.2018 10:00:00 24,0 20,0 9 5 ZW - 10
14.07.2018 09:00:00 22,0 20,0 5 3 Z - 10
14.07.2018 08:00:00 20,3 19,0 8 4 ZZW 1016,8 10
14.07.2018 07:00:00 20,0 19,0 11 6 Z - 10
14.07.2018 06:00:00 20,0 19,0 5 3 Z - 10
14.07.2018 05:00:00 22,0 19,0 13 7 OZO - 10
14.07.2018 04:00:00 22,0 20,0 15 8 ZO - 10
14.07.2018 03:00:00 21,0 21,0 15 8 ZW - 8
14.07.2018 02:00:00 22,0 21,0 5 3 ZZW - 7
14.07.2018 01:00:00 22,0 21,0 11 6 ZW - 7
14.07.2018 00:00:00 22,0 21,0 5 3 - - 9
13.07.2018 23:00:00 22,0 21,0 8 4 ZZO - 10

tt = temperatuur
td = dauwpunt
ff = windsnelheid
dd = windrichting
ppp = luchtdruk
vv = zicht

Weerstations in de omgeving